Rangeley, Maine, United States (04970)
Lat: 44.97N, Lon: 70.64W
Wx Zone: MEZ008
Local Info
Past Weather Observations for Today

NOTE: This archive is for the closest National Weather Service station to Rangeley. Information may differ from the station used for current weather conditions.

Click here for Long-term Archive

Time Weather Temperature Dewpoint Humidity Pressure Winds Precip Visibility
23:02
Overcast
45°F / 7°C 43°F / 6°C 93% 30.06 in
(1018 mb)
N 11.5 mph
(N 19 kph)
- 10SM
22:52
Overcast
45°F / 7°C 43°F / 6°C 93% 30.06 in
(1018 mb)
N 10.4 mph
(N 17 kph)
0.00 in
(0.00 mm)
9SM
21:52
Overcast
45°F / 7°C 43°F / 6°C 93% 30.09 in
(1019 mb)
NNW 8.1 mph
(NNW 13 kph)
0.01 in
(0.25 mm)
10SM
20:52
Overcast
46°F / 8°C 43°F / 6°C 87% 30.09 in
(1019 mb)
NNW 10.4 mph
(NNW 17 kph)
- 10SM
19:52
Overcast
46°F / 8°C 43°F / 6°C 87% 30.09 in
(1019 mb)
NNW 10.4 mph
(NNW 17 kph)
0.00 in
(0.00 mm)
10SM
18:52
Overcast
Light Rain
46°F / 8°C 43°F / 6°C 87% 30.12 in
(1020 mb)
N 10.4 mph
(N 17 kph)
0.00 in
(0.00 mm)
10SM
18:45
Overcast
46°F / 8°C 43°F / 6°C 87% 30.12 in
(1020 mb)
N 9.2 mph
(N 15 kph)
0.00 in
(0.00 mm)
10SM
18:32
Overcast
Light Rain
46°F / 8°C 43°F / 6°C 87% 30.12 in
(1020 mb)
NNE 10.4 mph
(NNE 17 kph)
0.00 in
(0.00 mm)
10SM
17:52
Overcast
Light Rain
46°F / 8°C 43°F / 6°C 87% 30.12 in
(1020 mb)
NNE 5.8 mph
(NNE 9 kph)
0.03 in
(0.76 mm)
7SM
17:22
Overcast
Light Rain
46°F / 8°C 43°F / 6°C 87% 30.15 in
(1021 mb)
N 5.8 mph
(N 9 kph)
0.00 in
(0.00 mm)
10SM
16:52
Overcast
Light Rain
46°F / 8°C 43°F / 6°C 87% 30.15 in
(1021 mb)
N 8.1 mph
(N 13 kph)
0.00 in
(0.00 mm)
7SM
15:52
Overcast
46°F / 8°C 43°F / 6°C 87% 30.15 in
(1021 mb)
N 4.6 mph
(N 7 kph)
0.06 in
(1.52 mm)
10SM
14:52
Overcast
Rain
50°F / 10°C 43°F / 6°C 76% 30.15 in
(1021 mb)
N 12.7 mph
(N 20 kph)
0.02 in
(0.51 mm)
5SM
13:52
Overcast
52°F / 11°C 43°F / 6°C 72% 30.15 in
(1021 mb)
NNE 10.4 mph
(NNE 17 kph)
- 10SM
12:52
Overcast
50°F / 10°C 45°F / 7°C 82% 30.15 in
(1021 mb)
N 8.1 mph
(N 13 kph)
- 10SM
12:43
Overcast
50°F / 10°C 45°F / 7°C 82% 30.15 in
(1021 mb)
N 6.9 mph
(N 11 kph)
- 10SM
11:52
Overcast
48°F / 9°C 45°F / 7°C 87% 30.18 in
(1022 mb)
N 6.9 mph
(N 11 kph)
0.01 in
(0.25 mm)
10SM
10:52
Overcast
Light Rain
48°F / 9°C 45°F / 7°C 87% 30.18 in
(1022 mb)
N 10.4 mph
(N 17 kph)
0.00 in
(0.00 mm)
6SM
09:52
Overcast
48°F / 9°C 45°F / 7°C 87% 30.18 in
(1022 mb)
N 10.4 mph
(N 17 kph)
0.00 in
(0.00 mm)
10SM
09:07
Overcast
46°F / 8°C 43°F / 6°C 87% 30.21 in
(1023 mb)
NNW 8.1 mph
(NNW 13 kph)
0.00 in
(0.00 mm)
10SM
08:52
Overcast
Light Rain
46°F / 8°C 43°F / 6°C 87% 30.18 in
(1022 mb)
N 8.1 mph
(N 13 kph)
0.00 in
(0.00 mm)
10SM
08:14
Overcast
46°F / 8°C 43°F / 6°C 87% 30.18 in
(1022 mb)
Variable 6.9 mph
(Variable 11 kph)
- 10SM
07:52
Overcast
46°F / 8°C 43°F / 6°C 87% 30.18 in
(1022 mb)
NE 10.4 mph
(NE 17 kph)
- 10SM
06:52
Overcast
46°F / 8°C 43°F / 6°C 87% 30.18 in
(1022 mb)
NE 8.1 mph
(NE 13 kph)
0.00 in
(0.00 mm)
10SM
05:52
Overcast
Light Rain
45°F / 7°C 43°F / 6°C 93% 30.18 in
(1022 mb)
Variable 5.8 mph
(Variable 9 kph)
0.05 in
(1.27 mm)
7SM
04:52
Overcast
Rain
45°F / 7°C 43°F / 6°C 93% 30.15 in
(1021 mb)
N 6.9 mph
(N 11 kph)
0.07 in
(1.78 mm)
6SM
04:33
Overcast
Light Rain
45°F / 7°C 43°F / 6°C 93% 30.15 in
(1021 mb)
N 6.9 mph
(N 11 kph)
0.03 in
(0.76 mm)
8SM
03:59
Overcast
Light Rain
45°F / 7°C 43°F / 6°C 93% 30.15 in
(1021 mb)
N 6.9 mph
(N 11 kph)
0.00 in
(0.00 mm)
9SM
03:52
Overcast
Light Rain
45°F / 7°C 43°F / 6°C 93% 30.15 in
(1021 mb)
N 6.9 mph
(N 11 kph)
0.02 in
(0.51 mm)
8SM
02:52
Overcast
Heavy Rain
45°F / 7°C 43°F / 6°C 93% 30.12 in
(1020 mb)
N 8.1 mph
(N 13 kph)
0.10 in
(2.54 mm)
4SM
01:52
Overcast
Rain
45°F / 7°C 43°F / 6°C 93% 30.12 in
(1020 mb)
N 8.1 mph
(N 13 kph)
0.01 in
(0.25 mm)
8SM
00:52
Overcast
Light Rain
45°F / 7°C 43°F / 6°C 93% 30.12 in
(1020 mb)
N 8.1 mph
(N 13 kph)
0.07 in
(1.78 mm)
9SM
00:09
Overcast
Light Rain
45°F / 7°C 43°F / 6°C 93% 30.12 in
(1020 mb)
N 8.1 mph
(N 13 kph)
0.00 in
(0.00 mm)
9SM
Time Weather Temperature Dewpoint Humidity Pressure Winds Precip Visibility


Weather for websites

WeatherForYou.com, LLC is not responsible for any damages or problems caused by this service. Current weather conditions are obtained from the closest station including government and personal stations which may have varying degrees of accuracy. Weather forecasts are derived from the NOAA NDFD. Like all things, this site belongs to Jesus Christ... He just trusts me to maintain it. If you have any questions or comments email webmaster@weatherforyou.com

Copyright © 2014, WeatherForYou.com LLC. All rights reserved.